Regional Weather Roundup
Issued by NWS

Home | Current Version | Previous Version | Graphics & Text | Print | Product List | Glossary On
Versions: 1 2 3 4 5 6 7 8 9 10 11 12 13 14 15 16 17 18 19 20 21 22 23 24 25 26 27 28 29 30 31 32 33 34 35 36 37 38 39 40 41 42 43 44 45 46 47 48 49 50
000
ASUS43 KDMX 021107
RWRIA

WEATHER ROUNDUP FOR IOWA
NATIONAL WEATHER SERVICE DES MOINES IA
600 AM CDT TUE SEP 02 2014

NOTE: "FAIR" INDICATES FEW OR NO CLOUDS BELOW 12,000 FEET WITH NO
SIGNIFICANT WEATHER AND/OR OBSTRUCTIONS TO VISIBILITY.

* - THESE STATIONS ARE NOT NWS STATIONS...THUS NOT UNDER NWS
QUALITY CONTROL.  THEY ALSO DO NOT REPORT WEATHER SUCH
AS PRECIPITATION OR FOG.

IAZ001>003-012>014-020>022-031>034-043>046-021200-
   NORTHWEST IOWA

CITY           SKY/WX    TMP DP  RH WIND       PRES   REMARKS
CARROLL *      CLEAR     55  55 100 W5        29.93S
CHEROKEE *     FOG       55  55 100 CALM      29.94S VSB 1
DENISON *      CLEAR     55  55 100 CALM      29.92S
LE MARS *      CLEAR     57  55  94 CALM      29.94S
ORANGE CITY *  CLEAR     55  54  94 CALM      29.94S
SHELDON *      CLEAR     55  55 100 W6        29.93S
SPENCER        PTCLDY    56  54  93 W8        29.92S
STORM LAKE *   CLEAR     54  54 100 W7        29.94S
$$

IAZ055>058-069>071-079>083-090>094-021200-
   SOUTHWEST IOWA

CITY           SKY/WX    TMP DP  RH WIND       PRES   REMARKS
ATLANTIC *     CLEAR     57  55  94 CALM      29.93S
AUDUBON *      CLEAR     57  55  94 CALM      29.95S
CLARINDA *     CLEAR     59  59 100 CALM      29.95S
COUNCIL BLFS * CLEAR     57  57 100 W6        29.93F
CRESTON *      CLEAR     59  59 100 NW6       29.94S
HARLAN  *      CLEAR     55  55 100 CALM      29.98R
LAMONI         FOG       61  60  97 NW3       29.92R VSB 1/4
RED OAK *      CLEAR     59  59 100 W6        29.94F
SHENANDOAH *     N/A     59  59 100 CALM      29.95S FOG
$$

IAZ047>049-059>061-072>074-084-021200-
   CENTRAL IOWA

CITY           SKY/WX    TMP DP  RH WIND       PRES   REMARKS
AMES           CLOUDY    60  59  96 W5        29.92R
ANKENY *       PTCLDY    61  59  94 CALM      29.91F
CHARITON *     CLEAR     61  61 100 NW5       29.92R
DES MOINES     PTCLDY    62  58  86 NW3       29.90S
GRINNELL*      PTCLDY    61  59  94 W6        29.91S
KNOXVILLE *    CLEAR     61  59  94 NW7       29.90R
MARSHALLTOWN   CLOUDY    61  60  97 CALM      29.89F
PELLA *        CLEAR     63  63 100 NW6       29.92R
PERRY *          N/A     57  57 100 W3        29.92S
$$

IAZ004>006-015-016-023>025-035-036-021200-
   NORTH CENTRAL IOWA

CITY           SKY/WX    TMP DP  RH WIND       PRES   REMARKS
ALGONA *       PTCLDY    59  57  94 CALM      29.93S
CLARION *      CLOUDY    59  57  94 N8        29.92S
ESTHERVILLE    MOCLDY    56  56 100 S6        29.91F
FORT DODGE *   CLOUDY    59  57  94 CALM      29.93R
MASON CITY     LGT RAIN  59  58  96 NW10      29.95R FOG
FOREST CITY *  LGT RAIN  59  59 100 CALM      29.93F
IOWA FALLS *   CLOUDY    61  59  94 W6        29.94R
$$

IAZ007>011-017>019-026>030-037>042-050>054-066-021200-
   NORTHEAST IOWA

CITY           SKY/WX    TMP DP  RH WIND       PRES   REMARKS
CEDAR RAPIDS   MOCLDY    59  59 100 S5        29.88R FOG
CHARLES CITY * CLOUDY    61  55  82 W13       29.94R
CLINTON *        N/A     59  57  94 W3        29.90F VSB 1/4
DECORAH *      PTCLDY    59  57  94 SW5       29.89R
DUBUQUE        CLEAR     60  58  92 CALM      29.88F
MONTICELLO *   CLEAR     59  59 100 CALM      29.88S
OELWEIN *      LGT RAIN  61  59  94 NW13G23   29.88F
WATERLOO       CLOUDY    60  57  89 CALM      29.88S
$$

IAZ064-065-067-068-078-021200-
   EAST CENTRAL IOWA

CITY           SKY/WX    TMP DP  RH WIND       PRES   REMARKS
DAVENPORT      PTCLDY    58  58 100 CALM      29.89S FOG
IOWA CITY      PTCLDY    62  61  96 CALM      29.89S
MT. PLEASANT * FOG       63  63 100 CALM      29.89S VSB 1/2
MUSCATINE *    FOG       63  63 100 CALM      29.89R VSB 1/2
QUAD CITIES    FOG       60  59  96 CALM      29.88S VSB 1/2
$$

IAZ062-063-075>077-085>089-095>099-021200-
   SOUTHEAST IOWA

CITY           SKY/WX    TMP DP  RH WIND       PRES   REMARKS
BURLINGTON     LGT RAIN  65  64  97 CALM      29.88F
FAIRFIELD *    FOG       63  61  94 CALM      29.89S VSB 1/2
FORT MADISON * CLEAR     66  66 100 CALM      29.89F
KEOKUK *       CLOUDY    68  68 100 SW5       29.88S FOG
OSKALOOSA *      N/A     61  61 100 NW6       29.90S
CENTERVILLE *  CLEAR     59  59 100 CALM      29.91R
OTTUMWA        FOG       60  58  92 CALM      29.90R VSB 1
WASHINGTON *   FOG       61  61 100 NW5       29.89R VSB 1/4
$$

ABBREVIATIONS USED IN REMARKS
   TC - TEMPERATURES IN CELSIUS
  WCI - WIND CHILL INDEX
   HX - HEAT INDEX
  VSB - VISIBILITY
$$



USA.gov is the U.S. government's official web portal to all federal, state and local government web resources and services.